WXPETECO Weather Reports


Display with metric or nautical units.
time (UTC)temp
F
wind
direction
speed
MPH
gust
MPH
rain 1hr
in
rain 24hr
in
rain mn
in
humidity
%
barometer
mb
20260906221533 78 103 2.0 5.0 0.00 0.00 0.00 36 1005.7
20260906220027 78 136 3.0 15.0 0.00 0.00 0.00 35 1005.7
20260906214526 80 29 3.0 9.0 0.00 0.00 0.00 32 1005.8
20260906213026 82 159 2.0 10.0 0.00 0.00 0.00 31 1005.8
20260906211524 83 139 4.0 12.0 0.00 0.00 0.00 30 1005.9
20260906210023 84 102 3.0 8.0 0.00 0.00 0.00 29 1006.0
20260906204521 83 207 3.0 8.0 0.00 0.00 0.00 31 1006.2
20260906203029 81 173 3.0 14.0 0.00 0.00 0.00 30 1006.2
20260906201614 82 72 4.0 16.0 0.00 0.00 0.00 31 1006.1
20260906200012 82 154 5.0 11.0 0.00 0.00 0.00 32 1006.3
20260906194510 82 78 4.0 13.0 0.00 0.00 0.00 31 1006.4
20260906193010 83 154 3.0 9.0 0.00 0.00 0.00 31 1006.7
20260906191505 81 69 3.0 14.0 0.00 0.00 0.00 31 1006.8
20260906190002 81 115 3.0 9.0 0.00 0.00 0.00 31 1007.1
20260906184610 79 39 3.0 10.0 0.00 0.00 0.00 33 1007.3
20260906183109 80 107 2.0 8.0 0.00 0.00 0.00 31 1007.6
20260906181601 82 98 4.0 10.0 0.00 0.00 0.00 30 1007.8
20260906180117 81 52 2.0 6.0 0.00 0.00 0.00 29 1008.0
20260906174609 82 128 2.0 8.0 0.00 0.00 0.00 29 1008.3
20260906173047 79 123 2.0 8.0 0.00 0.00 0.00 31 1008.5
20260906171605 79 57 0.0 4.0 0.00 0.00 0.00 31 1008.5
20260906170057 79 138 1.0 4.0 0.00 0.00 0.00 30 1008.6
20260906164544 79 84 2.0 8.0 0.00 0.00 0.00 29 1008.6
20260906163040 78 51 2.0 8.0 0.00 0.00 0.00 30 1008.9
20260906161547 76 136 2.0 7.0 0.00 0.00 0.00 32 1009.0
20260906160033 74 137 1.0 4.0 0.00 0.00 0.00 37 1008.9
20260906154526 71 44 0.0 3.0 0.00 0.00 0.00 38 1009.1
20260906153030 69 115 0.0 3.0 0.00 0.00 0.00 45 1009.3
20260906151520 66 64 0.0 1.0 0.00 0.00 0.00 49 1009.4
20260906150013 64 64 0.0 3.0 0.00 0.00 0.00 54 1009.6
20260906144511 62 64 0.0 1.0 0.00 0.00 0.00 54 1009.6
20260906143004 58 64 1.0 3.0 0.00 0.00 0.00 59 1009.7
20260906141621 54 16 0.0 0.0 0.00 0.00 0.00 68 1009.7
20260906140058 52 16 0.0 0.0 0.00 0.00 0.00 71 1009.6
20260906134555 51 16 0.0 0.0 0.00 0.00 0.00 73 1009.5
20260906133059 49 16 0.0 0.0 0.00 0.00 0.00 74 1009.4
20260906131600 49 16 0.0 0.0 0.00 0.00 0.00 73 1009.2
20260906130055 50 16 0.0 0.0 0.00 0.00 0.00 72 1009.0
20260906124542 50 16 0.0 0.0 0.00 0.00 0.00 70 1008.8
20260906123041 51 16 0.0 0.0 0.00 0.00 0.00 70 1008.7
20260906121541 51 16 0.0 0.0 0.00 0.00 0.00 69 1008.6
20260906120038 51 16 0.0 3.0 0.00 0.00 0.00 70 1008.6
20260906114546 51 333 0.0 0.0 0.00 0.00 0.00 69 1008.6
20260906113037 51 333 0.0 0.0 0.00 0.00 0.00 69 1008.7
20260906111542 51 36 0.0 0.0 0.00 0.00 0.00 68 1008.7
20260906110032 52 36 0.0 1.0 0.00 0.00 0.00 67 1008.7
20260906104532 53 360 0.0 0.0 0.00 0.00 0.00 66 1008.7
20260906103026 53 360 0.0 1.0 0.00 0.00 0.00 64 1008.5
20260906101529 54 360 0.0 0.0 0.00 0.00 0.00 63 1008.7
20260906100030 55 360 0.0 0.0 0.00 0.00 0.00 62 1008.8
20260906094519 55 360 0.0 3.0 0.00 0.00 0.00 62 1008.8
20260906093018 55 360 0.0 3.0 0.00 0.00 0.00 62 1008.8
20260906091519 55 355 0.0 2.0 0.00 0.00 0.00 61 1008.8
20260906090016 56 335 0.0 0.0 0.00 0.00 0.00 61 1008.8
20260906084514 56 335 0.0 1.0 0.00 0.00 0.00 60 1008.7
20260906083010 57 294 0.0 1.0 0.00 0.00 0.00 59 1008.8
20260906081508 58 294 0.0 0.0 0.00 0.00 0.00 58 1009.0
20260906080006 58 294 0.0 1.0 0.00 0.00 0.00 57 1008.9
20260906074504 59 294 0.0 0.0 0.00 0.00 0.00 56 1009.0
20260906073005 59 294 0.0 2.0 0.00 0.00 0.00 55 1009.0
20260906071559 60 294 0.0 1.0 0.00 0.00 0.00 54 1008.8
20260906070057 60 294 0.0 1.0 0.00 0.00 0.00 53 1009.0
20260906064553 61 292 0.0 2.0 0.00 0.00 0.00 52 1009.2
20260906063052 62 292 0.0 1.0 0.00 0.00 0.00 51 1009.1
20260906061553 62 292 0.0 3.0 0.00 0.00 0.00 51 1009.1
20260906060103 61 298 0.0 1.0 0.00 0.00 0.00 51 1009.0
20260906054553 62 312 0.0 2.0 0.00 0.00 0.00 51 1009.1
20260906053047 62 292 0.0 0.0 0.00 0.00 0.00 51 1009.0
20260906051546 62 27 0.0 2.0 0.00 0.00 0.00 51 1009.0
20260906050046 62 287 0.0 3.0 0.00 0.00 0.00 51 1008.9
20260906044546 61 134 2.0 4.0 0.00 0.00 0.00 52 1008.9
20260906043047 61 220 0.0 2.0 0.00 0.00 0.00 53 1008.6
20260906041645 62 288 0.0 2.0 0.00 0.00 0.00 52 1008.7
20260906040044 62 291 0.0 2.0 0.00 0.00 0.00 52 1008.6
20260906034558 62 216 1.0 5.0 0.00 0.00 0.00 52 1008.9
20260906033045 63 295 0.0 2.0 0.00 0.00 0.00 53 1008.9
20260906031543 63 248 0.0 4.0 0.00 0.00 0.00 52 1008.6
20260906030044 64 288 0.0 2.0 0.00 0.00 0.00 52 1008.6
20260906024541 65 284 0.0 3.0 0.00 0.00 0.00 52 1008.4
20260906023040 65 181 0.0 3.0 0.00 0.00 0.00 51 1008.3
20260906021543 66 178 1.0 5.0 0.00 0.00 0.00 51 1007.9
20260906020040 67 284 1.0 5.0 0.00 0.00 0.00 49 1007.9
20260906014547 67 209 1.0 5.0 0.00 0.00 0.00 49 1008.1
20260906013039 68 232 2.0 8.0 0.00 0.00 0.00 49 1007.7
20260906011538 68 283 2.0 4.0 0.00 0.00 0.00 48 1007.9
20260906010045 69 276 0.0 4.0 0.00 0.00 0.00 44 1007.8
20260906004545 69 136 2.0 8.0 0.00 0.00 0.00 45 1008.2
20260906003037 69 232 1.0 5.0 0.00 0.00 0.00 46 1008.5
20260906001551 70 279 1.0 5.0 0.00 0.00 0.00 44 1008.1
20260906000036 71 287 2.0 7.0 0.00 0.00 0.00 41 1008.2
20260905234537 72 274 0.0 7.0 0.00 0.00 0.00 39 1008.1
20260905233034 73 286 2.0 9.0 0.00 0.00 0.00 38 1008.0
20260905231533 74 279 0.0 7.0 0.00 0.00 0.00 36 1008.0
20260905230035 76 236 1.0 6.0 0.00 0.00 0.00 32 1007.8
20260905224534 77 139 5.0 14.0 0.00 0.00 0.00 30 1007.5
20260905223045 78 82 0.0 3.0 0.00 0.00 0.00 28 1006.9